Regional Weather Roundup
Issued by NWS Sioux Falls, SD

Home | Current Version | Previous Version | Graphics & Text | Print | Product List | Glossary Off
Versions: 1 2 3 4 5 6 7 8 9 10 11 12 13 14 15 16 17 18 19 20 21 22 23 24 25 26 27 28 29 30 31 32 33 34 35 36 37 38 39 40 41 42 43 44 45 46 47 48 49 50

000
ASUS43 KFSD 280902
RWRFSD

WEATHER ROUNDUP FOR SE SOUTH DAKOTA/SW MINNESOTA/NW IOWA
NATIONAL WEATHER SERVICE SIOUX FALLS SD
400 AM CDT THU JUL 28 2016

NOTE: "FAIR" INDICATES FEW OR NO CLOUDS BELOW 12,000 FEET WITH NO
SIGNIFICANT WEATHER AND OR OBSTRUCTIONS TO VISIBILITY.


SDZ038>040-050-052>070-281000-
SOUTHEAST SOUTH DAKOTA

CITY           SKY/WX    TMP DP  RH WIND       PRES   REMARKS
BROOKINGS      CLOUDY    61  58  90 N5        30.04F
CHAMBERLAIN    PTCLDY    66  60  80 NE3       30.07S
HURON          CLEAR     62  59  90 N5        30.05F
MADISON        FAIR      59  59 100 N6        30.05F
MITCHELL       PTCLDY    64  61  90 NW3       30.05F
SIOUX FALLS    CLOUDY    63  58  83 N3        30.03F
WINNER         FAIR      61  58  90 NW3       30.09S
YANKTON        CLEAR     64  59  82 CALM      30.02S
$$

MNZ071-072-080-081-089-090-097-098-281000-
SOUTHWEST MINNESOTA

CITY           SKY/WX    TMP DP  RH WIND       PRES   REMARKS
FAIRMONT       MOCLDY    64  57  77 N5        29.99S
JACKSON        CLEAR     63  59  88 W3        30.02S
LUVERNE        CLOUDY    63  55  77 CALM      30.03S
MARSHALL       CLOUDY    60  58  92 NW6       30.03F
MONTEVIDEO     PTCLDY    61  57  88 NE3       30.04S
REDWOOD FALLS  CLOUDY    64  61  90 NW6       30.00F
TRACY          CLOUDY    62  60  93 NW5       30.03S
WINDOM         CLEAR     63  61  94 NW6       30.01F
WORTHINGTON    CLEAR     61  58  90 N5        30.03S
$$

IAZ001>003-012>014-020>022-031-032-NEZ013-014-SDZ071-281000-
NORTHWEST IOWA

CITY           SKY/WX    TMP DP  RH WIND       PRES   REMARKS
CHEROKEE       CLEAR     65  64  99 N3        30.00F
DENISON        CLEAR     66  66 100 N8        29.97S
ESTHERVILLE    PTCLDY    62  62 100 NW6       30.00F
LE MARS        CLEAR     64  63  94 N5        30.02F
SHELDON        CLEAR     63  61  94 NE7       30.00F
SIOUX CITY     CLEAR     71  63  75 N8        30.00F
SPENCER        CLEAR     64  61  90 N8        30.00F
STORM LAKE     CLEAR     64  63  94 W7        30.01S
$$

ABBREVIATIONS USED IN REMARKS
   TC - TEMPERATURE IN CELSIUS
  WCI - WIND CHILL INDEX
   HX - HEAT INDEX
  VSB - VISIBILITY





USA.gov is the U.S. government's official web portal to all federal, state and local government web resources and services.